CAPE
1303 1082 851 700 478 424 218 176 256 378 283 333 386 312 287 362 405 165 57 62 2 1 1 3 19 98 114 330 105 80 78 430 333 5 0 0 1153 795 423 403 493 554 430 302 294 426 473 507 547 530 558 560 601 697 697 766 776 827 885 932 1010 1061 1145 1146 1133 1149 1247 1337 1192 1184 1203 1202 1200 1159
1631 1260 1036 1070 535 458 675 391 248 384 549 457 457 465 352 464 280 310 291 186 56 42 1 0 152 482 221 285 191 202 60 200 31 1 42 21 405 457 68 188 236 238 284 190 126 130 174 186 204 201 231 219 264 279 424 492 464 575 630 730 844 950 1030 1058 1084 1146 1211 1166 1102 1130 1189 1216 1232 1224
1795 1652 1292 1270 1056 703 771 875 466 401 700 637 450 525 526 420 465 567 403 376 321 10 89 0 82 218 394 112 69 71 145 260 17 0 44 59 320 0 253 19 24 133 101 115 60 19 7 2 1 10 38 26 227 231 343 385 488 606 688 769 851 901 995 1098 1087 1211 1244 1230 1223 1201 1160 1187 1206 1247
1848 1812 1415 1435 1318 1058 786 697 571 378 776 736 449 500 659 640 511 527 671 522 365 161 9 31 2 73 172 80 68 143 69 159 0 0 101 850 0 26 167 0 6 1 17 6 7 0 0 0 0 1 14 26 165 162 272 418 510 553 602 625 634 649 710 745 791 846 890 930 972 1049 1014 972 1049 1197
1905 1964 1603 1465 1514 1346 1124 971 717 407 708 827 511 538 601 602 680 700 577 604 459 392 108 74 60 5 133 67 77 154 133 373 97 6 137 406 157 3 5 156 0 2 0 0 0 0 0 0 0 0 3 14 75 127 230 278 248 265 362 470 444 438 512 569 649 698 797 804 842 896 925 937 888 931
1874 1928 1980 1532 1518 1553 1310 1035 581 536 778 819 522 530 599 648 876 792 832 600 645 443 316 240 13 123 5 181 184 226 145 176 275 23 48 174 214 209 75 19 255 0 0 0 0 0 0 0 0 0 0 0 18 66 122 144 86 114 211 288 287 274 282 264 301 368 386 468 529 602 658 753 748 774
2140 2058 2068 1849 1505 1474 1329 1091 634 388 686 848 552 520 581 691 676 840 765 853 668 493 467 446 234 90 198 0 314 125 184 273 248 298 208 186 230 227 194 112 41 0 0 0 0 0 0 0 0 0 0 0 1 4 6 1 0 16 24 21 34 53 70 76 63 83 159 154 187 240 276 323 340 366
2339 2174 2212 2116 1639 1528 1416 1202 885 494 630 784 894 684 784 817 745 788 866 721 886 780 634 534 323 164 224 99 230 304 262 160 196 263 412 397 346 264 202 281 231 758 0 0 0 0 0 0 0 0 0 0 0 0 0 0 0 0 0 0 0 0 0 0 0 0 0 0 0 0 1 29 37 86
2644 2472 2296 2282 1837 1522 1455 1477 951 580 666 763 933 888 910 918 785 682 970 861 664 817 736 614 415 325 327 393 352 396 446 412 364 439 514 458 635 546 272 124 113 602 210 85 0 0 0 0 0 0 0 0 0 0 0 0 0 0 0 0 0 0 0 0 0 0 0 0 0 0 0 0 6 10
2823 2745 2562 2485 2027 1611 1534 1547 1325 932 725 808 1012 1116 1074 1019 936 827 956 1020 972 607 867 823 556 403 349 345 459 498 466 517 507 600 906 806 530 534 506 356 126 479 81 83 39 7 0 0 0 0 0 0 0 0 0 0 0 0 0 0 0 0 0 0 0 0 0 0 0 0 0 0 0 0
3103 2928 2875 2698 2208 1774 1639 1650 1646 1172 776 794 900 1150 1142 1053 1173 910 877 1110 967 884 830 813 698 544 525 599 604 583 551 532 453 485 538 663 700 1111 1031 888 606 469 210 55 53 58 69 19 57 0 0 0 0 0 0 0 0 0 0 0 0 0 0 0 0 0 0 0 0 0 0 0 0 0
3058 3056 3074 2800 2366 1915 1755 1780 1856 1469 1031 902 924 1006 1073 1116 1206 1097 941 1037 1084 995 909 783 734 661 737 727 598 615 745 976 839 543 372 306 354 868 1622 1536 1326 773 690 423 58 74 2 0 30 0 0 0 0 0 0 0 0 0 0 0 0 0 0 0 0 0 0 0 0 0 0 0 0 0
2949 2904 2954 2787 2524 2280 1796 1555 1748 1335 1176 1062 1081 1202 1191 1211 1246 1286 1122 1123 1265 1094 915 823 840 727 698 758 969 675 982 1006 744 787 638 655 586 729 939 1118 992 827 706 492 95 36 95 3 2 16 133 305 0 0 0 51 2 0 0 0 0 0 0 0 0 0 0 0 0 0 0 0 0 0
3148 2913 2741 2775 2149 1890 1599 1455 1507 1249 1056 1043 1098 1404 1305 1284 1316 1404 1295 1275 1308 1235 1098 897 866 801 720 664 817 490 703 1540 1278 999 683 719 1002 881 870 777 1047 673 599 159 276 290 53 0 0 0 0 0 0 0 194 0 0 0 0 0 0 0 0 0 0 0 0 0 0 0 0 0 0 0
3283 3065 2747 2780 2649 1994 1735 1483 1480 1296 1015 960 938 1210 1241 1273 1356 1351 1293 1307 1360 1367 1155 1134 971 791 794 711 459 430 616 719 1204 1225 1173 1030 1034 736 320 187 285 321 453 386 316 307 97 0 0 0 0 0 1 0 0 0 0 0 0 0 0 0 0 0 0 0 0 0 0 0 0 0 0 0
3428 3180 3055 2808 2682 2656 2421 2149 1581 1348 1050 934 950 893 979 986 1008 1080 1545 1467 1304 1390 1339 1174 963 765 712 719 587 197 312 960 646 567 932 1202 1062 594 279 254 228 547 159 207 210 50 0 0 0 0 0 0 0 0 0 0 0 0 0 0 0 0 0 0 0 0 0 0 0 0 0 0 0 0
3646 3408 3199 3042 2768 2670 2179 2027 2132 1937 1217 924 927 839 770 865 897 819 875 1211 1666 1243 1337 1174 1114 857 778 672 613 247 430 519 342 539 792 692 631 628 324 344 105 79 206 151 3 0 0 0 0 0 0 0 0 0 0 0 0 0 0 0 0 0 0 0 0 0 0 0 0 0 0 0 0 0
3648 3615 3405 3185 3136 2915 2979 2459 2268 2195 1883 1400 1011 946 1234 1408 1352 835 764 768 766 1464 1519 1359 1143 1026 904 888 667 643 601 557 634 471 577 425 308 218 299 231 245 221 9 0 0 0 0 0 0 0 0 0 0 0 12 0 0 0 0 0 0 0 0 0 0 0 0 0 0 0 0 0 0 0
3667 3726 3602 3511 3377 3251 3556 2576 2343 2370 2115 1836 1412 1270 1089 1083 1277 1330 999 758 634 886 938 1205 1258 1164 945 911 844 793 843 832 971 653 489 374 327 316 224 293 106 0 0 0 0 0 0 0 0 0 0 0 0 0 0 0 0 0 0 0 0 0 0 0 0 0 0 0 0 0 0 0 0 0
3940 3772 3829 3796 3517 3384 3553 2696 2110 2122 2350 2078 1651 1425 1232 1080 1077 1183 981 677 448 351 468 631 689 831 768 550 851 994 847 996 857 538 566 503 498 421 76 0 0 0 0 0 0 0 0 0 0 0 0 0 0 0 0 0 0 0 0 0 0 0 0 0 0 0 0 0 0 0 0 0 0 0
3846 3854 3918 3980 3759 3381 3550 2980 2269 1806 2016 2359 1975 1612 1356 1184 981 812 845 638 430 184 113 260 216 406 336 313 542 679 726 1046 706 573 360 310 94 2 0 0 0 0 2 0 0 0 0 0 0 0 0 0 0 0 0 4 0 0 0 0 0 0 0 0 0 0 0 0 0 0 0 0 0 0
3927 3783 3253 3748 3898 3556 3935 3038 2516 1827 1755 2508 2284 1900 1558 1344 1105 909 737 735 579 242 232 239 304 360 443 378 291 244 500 312 287 715 296 137 24 1 4 4 0 0 0 2 0 0 0 0 0 0 0 0 0 0 0 0 0 0 0 0 0 0 0 0 0 0 0 0 0 0 0 0 0 0
3755 3790 3476 3254 3460 3777 3595 3179 2759 2086 1839 2499 2478 2185 1790 1478 1276 1127 807 673 789 344 308 380 412 398 487 460 392 310 204 37 369 286 238 44 0 0 0 0 0 0 0 0 0 0 0 0 0 0 0 0 0 0 0 0 0 0 0 0 0 0 0 0 0 0 0 0 0 0 0 0 0 0
3381 3358 3467 3315 3065 3093 3181 3207 2869 2407 1804 2362 2573 2364 2005 1703 1572 1285 723 826 830 779 516 594 601 584 599 580 481 264 188 189 148 156 48 4 0 0 0 0 0 0 0 0 0 0 0 0 0 0 0 0 0 0 0 0 0 0 0 0 0 0 0 0 0 0 0 0 0 0 0 0 0 0
3012 2903 2983 3349 3158 2817 2819 2962 2828 2622 2267 1974 2567 2579 2332 2032 1674 958 494 1158 622 784 629 696 716 691 742 649 466 197 144 161 143 0 0 0 0 0 0 0 0 0 0 0 0 0 0 0 0 0 0 0 0 0 0 0 0 0 0 0 0 0 0 0 0 14 0 0 0 0 0 0 0 0
3130 3187 3351 3604 3474 2883 2565 2592 2510 2444 2353 2059 2319 2703 2003 1491 1093 896 656 1109 831 790 695 758 820 847 793 648 453 215 139 123 1 0 0 0 0 0 0 0 0 0 0 0 0 0 0 0 0 0 0 0 0 0 0 0 0 0 0 0 0 0 0 0 0 0 0 0 0 224 1 0 0 0
3139 3131 3401 3382 3160 2807 2659 2335 2322 2296 2243 2030 1778 2016 1726 1352 1173 1077 896 1121 943 929 764 886 946 910 762 636 482 282 148 136 46 0 0 0 0 0 0 0 0 0 0 0 0 0 0 0 0 0 0 0 0 0 0 0 0 0 0 0 0 0 0 0 0 0 0 0 0 0 0 0 0 0
2812 3275 3549 3590 3162 2902 2663 2168 2204 2169 2078 1893 1618 1625 1573 1339 1192 1117 1120 1022 924 854 854 974 984 886 721 587 434 225 153 122 1 0 0 0 0 0 0 0 0 0 0 0 0 0 0 0 0 0 0 0 0 0 0 0 0 0 0 0 0 0 0 0 0 0 0 0 0 0 0 0 118 443
2945 2977 2880 2953 3059 2926 2614 2179 2063 2018 1939 1811 1589 1318 1314 1187 1090 1084 1150 1097 1032 952 958 994 955 879 659 485 426 179 106 111 0 0 0 0 0 0 0 0 0 0 0 0 0 0 0 0 0 0 0 0 0 0 0 0 0 0 0 0 0 0 0 0 0 0 0 0 0 0 0 0 0 0
2530 2578 2760 2812 2832 2819 2752 2503 2108 1923 1824 1709 1502 1330 1214 1123 1068 1080 1126 1107 1050 1015 1024 977 882 794 534 405 336 196 18 31 0 0 0 0 0 0 0 0 0 0 0 0 0 0 0 0 0 0 0 0 0 0 0 0 0 0 0 0 0 0 0 0 0 0 0 20 0 0 0 0 0 0
2562 2569 2475 2460 2591 2594 2719 2715 2416 1872 1746 1591 1410 1266 1128 1039 1004 1038 1089 1070 1042 1068 1024 898 861 824 520 297 0 0 0 16 0 0 0 0 0 0 0 0 0 0 0 0 0 0 0 0 0 0 0 0 0 0 0 0 0 0 0 0 0 0 0 0 0 0 0 0 0 0 0 0 0 0
2608 2502 2460 2408 2372 2362 2454 2676 2578 2214 1802 1565 1341 1203 1120 1060 986 1023 1062 1123 1120 1130 1007 966 999 746 335 179 30 0 0 0 0 0 0 0 0 0 0 0 0 0 0 0 0 0 0 0 0 0 0 0 0 0 0 0 0 0 0 0 0 0 0 0 0 0 0 0 0 0 4 0 0 0
2716 2655 2530 2299 2306 2392 2220 2147 2273 2245 2045 1719 1468 1170 958 968 965 972 1059 1110 1170 1146 1056 1043 946 672 170 0 0 0 0 0 0 0 1 0 2 0 0 0 0 0 0 0 0 0 0 0 0 0 0 0 0 0 0 0 0 0 0 0 0 0 0 0 0 0 0 0 0 0 0 0 0 0
2975 2856 2703 2577 2448 2427 2309 1937 1914 2073 2046 1938 1678 1547 1167 861 894 934 1073 1139 1124 985 877 847 832 406 140 0 0 0 0 0 0 0 0 3 2 7 1 0 0 0 0 0 0 0 1 0 0 0 0 0 0 0 0 0 0 0 0 0 0 0 0 0 0 0 0 0 0 0 0 0 0 0
3070 2896 2884 2728 2524 2385 2270 2102 1772 1783 1851 1936 1830 1746 1516 964 985 1017 1068 1087 1014 899 775 705 528 264 87 0 10 0 0 6 0 0 0 3 1 0 0 0 0 0 0 0 0 0 0 0 0 0 0 0 0 0 0 0 0 0 0 0 0 0 0 0 0 0 0 0 0 0 0 0 0 0
3322 3082 2919 2755 2596 2512 2463 2211 1919 1654 1701 1790 1895 1908 1519 1398 1066 989 1010 964 904 786 653 524 393 105 0 0 0 0 1 0 0 0 0 0 0 0 0 0 0 0 0 0 0 0 0 0 0 0 0 0 0 0 0 0 0 0 0 0 0 0 0 0 0 0 0 0 7 2 0 0 0 0
2996 3009 2944 2864 2737 2619 2520 2413 2093 1746 1395 1512 1650 1694 1788 1708 1265 923 1029 976 832 700 608 500 138 0 4 0 0 1 0 0 0 0 0 0 0 0 0 0 0 0 0 0 0 0 0 0 0 0 0 0 0 0 0 26 0 0 0 0 0 0 0 0 0 0 0 0 1 0 0 0 0 0
2792 2926 2954 2936 2768 2613 2515 2386 2244 1837 1505 1392 1370 1527 1698 1699 1425 1034 942 921 840 778 142 0 0 0 0 0 0 0 0 0 0 0 0 2 1 0 0 0 0 0 0 0 0 0 0 0 0 0 0 0 0 0 0 5 7 0 8 76 0 0 0 0 0 0 0 0 0 0 0 0 0 0
2474 2460 2518 2702 2753 2623 2512 2254 1776 1595 1396 1222 1151 1176 1416 1378 1107 926 905 783 721 351 0 4 0 0 0 0 0 0 0 0 0 0 0 1 8 0 0 0 0 0 0 0 0 0 0 0 0 0 0 0 0 0 0 0 0 0 0 0 0 0 0 0 0 0 0 0 0 0 0 0 0 0
1926 2040 2001 2014 2276 2180 2021 1658 1652 1414 1076 830 895 979 1203 1275 1048 844 642 618 468 165 0 0 1 3 0 0 0 0 0 0 0 0 0 0 0 2 1 0 0 0 0 0 0 0 0 0 0 0 0 0 0 0 0 0 0 0 0 0 0 0 0 0 0 0 0 0 0 0 0 0 0 0
194 796 1298 1512 1504 1515 1102 1177 1109 1146 848 627 707 818 941 1027 790 708 649 537 339 188 20 26 0 2 0 0 0 0 0 0 0 0 0 0 0 0 0 0 0 0 0 0 0 0 0 0 15 0 2 0 0 0 0 0 0 0 0 0 0 0 0 0 0 0 0 0 0 0 0 0 0 0
2 14 294 547 796 976 907 772 673 702 741 578 517 722 866 986 776 804 705 446 205 36 53 40 1 0 0 0 0 0 0 0 0 0 0 0 0 0 0 0 0 0 0 0 0 0 0 0 0 0 0 0 0 0 0 0 0 0 0 0 26 8 0 0 0 2 60 0 0 0 0 0 0 0
131 337 386 417 445 474 400 355 311 300 478 383 437 631 655 663 769 817 500 219 16 11 1 0 0 0 0 0 0 0 0 3 6 5 0 0 3 0 0 0 0 0 0 0 0 0 0 0 0 0 0 0 0 0 0 0 0 0 0 0 0 1 7 0 0 0 0 0 0 0 0 0 0 0
22 253 263 274 280 198 0 0 42 354 463 315 388 568 586 549 514 332 81 1 0 0 0 0 0 0 1 4 6 5 7 12 16 15 3 0 0 0 0 0 0 0 0 0 0 0 0 0 0 0 0 0 0 0 0 0 0 0 0 0 0 0 0 0 3 1 0 0 0 0 0 0 0 0
44 17 6 3 3 1 5 17 126 225 238 335 474 586 529 349 140 8 11 7 0 0 0 0 0 10 20 13 14 16 34 15 3 1 0 0 0 0 0 0 0 0 0 0 0 0 0 0 0 0 0 0 0 0 0 0 0 0 0 0 0 0 0 0 0 0 0 0 0 0 0 0 0 0
Wind_Speed
12 13 16 16 17 16 18 17 18 19 18 17 17 16 17 15 13 14 nan nan nan nan nan nan nan nan 16 17 17 nan nan 24 29 nan nan nan 29 34 35 37 35 34 34 33 33 34 35 36 38 38 38 38 38 37 38 38 37 36 34 33 32 32 33 33 33 31 30 29 26 25 25 25 25 25
10 13 14 16 17 18 19 20 20 21 22 21 19 16 16 16 15 12 12 15 nan nan nan nan 19 18 18 19 19 23 nan 28 nan nan nan nan 33 40 nan 38 37 35 34 34 34 36 36 38 39 40 41 41 40 40 39 39 38 37 36 35 34 34 34 34 34 32 30 28 26 25 25 25 26 27
12 13 15 16 16 18 19 20 22 23 25 23 21 18 17 18 17 15 14 13 16 nan nan nan nan 22 22 20 nan nan 24 29 nan nan nan nan 40 nan 39 nan nan 35 34 34 nan nan nan nan nan nan nan nan 42 40 39 37 35 34 33 33 34 34 34 34 35 34 32 30 27 26 26 25 26 25
13 13 14 17 17 17 19 21 24 25 25 24 23 21 20 20 20 19 18 16 16 19 nan nan nan nan 24 nan nan 26 nan 31 nan nan 32 36 nan nan 38 nan nan nan nan nan nan nan nan nan nan nan nan nan 40 38 36 34 32 31 31 31 32 32 32 33 33 33 33 31 29 27 27 27 27 26
13 14 15 16 19 19 20 22 24 26 26 25 24 24 23 23 24 23 21 20 17 18 17 nan nan nan 24 nan nan 25 27 31 nan nan 32 36 35 nan nan 39 nan nan nan nan nan nan nan nan nan nan nan nan nan 37 35 33 32 31 30 29 30 31 32 33 33 34 34 33 30 28 27 28 29 28
13 15 16 17 20 21 21 22 25 25 27 28 27 27 26 26 25 24 23 21 19 19 19 17 nan 20 nan 22 26 26 27 30 32 nan nan 35 36 35 nan nan 39 nan nan nan nan nan nan nan nan nan nan nan nan nan 35 33 nan 30 30 29 30 31 32 32 32 33 33 33 31 30 27 27 29 29
14 15 16 18 19 20 22 23 23 25 27 28 28 28 28 28 27 26 24 22 22 20 20 19 18 nan 22 nan 27 27 27 28 33 34 35 36 36 36 34 34 nan nan nan nan nan nan nan nan nan nan nan nan nan nan nan nan nan nan nan nan nan nan nan nan nan nan 31 31 30 29 28 27 28 29
14 15 16 17 19 20 22 23 23 23 25 27 27 28 29 29 28 25 26 25 22 23 21 23 19 22 22 nan 24 29 29 30 33 34 35 36 35 35 37 36 31 41 nan nan nan nan nan nan nan nan nan nan nan nan nan nan nan nan nan nan nan nan nan nan nan nan nan nan nan nan nan nan nan nan
14 15 16 17 18 20 21 22 23 24 26 26 27 28 28 30 29 25 24 26 26 25 26 25 27 21 24 25 26 28 31 32 33 35 34 36 35 35 34 33 34 43 45 nan nan nan nan nan nan nan nan nan nan nan nan nan nan nan nan nan nan nan nan nan nan nan nan nan nan nan nan nan nan nan
14 14 16 17 18 20 21 22 23 24 26 26 27 28 28 30 30 27 24 26 29 30 30 30 31 30 27 28 28 31 32 33 35 35 36 36 34 35 35 34 33 38 nan nan nan nan nan nan nan nan nan nan nan nan nan nan nan nan nan nan nan nan nan nan nan nan nan nan nan nan nan nan nan nan
16 15 16 16 17 19 20 22 24 25 27 26 27 27 27 29 30 30 27 28 30 32 34 34 33 32 32 30 31 33 34 34 34 36 36 34 33 33 34 34 33 32 34 nan nan nan nan nan nan nan nan nan nan nan nan nan nan nan nan nan nan nan nan nan nan nan nan nan nan nan nan nan nan nan
17 17 17 17 17 18 20 22 23 26 27 27 27 27 27 27 29 30 31 32 32 32 33 34 35 34 33 34 32 35 37 37 38 36 34 32 32 33 35 34 32 31 31 35 nan nan nan nan nan nan nan nan nan nan nan nan nan nan nan nan nan nan nan nan nan nan nan nan nan nan nan nan nan nan
18 18 18 17 17 18 19 23 24 26 28 29 29 29 29 29 29 30 32 33 33 33 33 34 34 34 35 35 36 37 39 39 38 37 34 31 30 33 35 33 31 34 36 37 nan nan nan nan nan nan 44 46 nan nan nan nan nan nan nan nan nan nan nan nan nan nan nan nan nan nan nan nan nan nan
18 18 18 19 19 21 23 24 26 27 30 31 32 31 31 31 30 30 32 34 35 36 36 36 37 36 37 37 39 38 38 38 37 36 36 33 32 34 33 38 36 36 35 37 39 40 nan nan nan nan nan nan nan nan 42 nan nan nan nan nan nan nan nan nan nan nan nan nan nan nan nan nan nan nan
19 18 18 18 23 23 25 26 28 28 30 33 33 36 34 33 33 33 33 34 37 39 39 39 39 39 38 38 38 40 39 40 40 38 37 35 36 35 34 33 36 37 38 40 39 40 nan nan nan nan nan nan nan nan nan nan nan nan nan nan nan nan nan nan nan nan nan nan nan nan nan nan nan nan
21 21 20 20 20 23 25 27 29 30 32 33 34 36 37 36 35 34 35 36 38 40 41 42 42 41 40 39 40 40 42 42 42 42 40 40 38 38 36 35 34 38 39 39 40 nan nan nan nan nan nan nan nan nan nan nan nan nan nan nan nan nan nan nan nan nan nan nan nan nan nan nan nan nan
23 23 23 22 23 22 30 29 30 32 33 34 37 37 38 38 38 36 34 34 36 40 42 43 44 45 43 42 42 42 42 44 44 46 44 42 41 38 36 34 34 nan 41 40 nan nan nan nan nan nan nan nan nan nan nan nan nan nan nan nan nan nan nan nan nan nan nan nan nan nan nan nan nan nan
26 26 26 26 26 25 30 29 31 34 35 36 35 36 36 36 37 38 39 38 36 35 40 44 45 47 47 45 45 46 46 46 45 48 48 47 42 41 38 36 36 37 nan nan nan nan nan nan nan nan nan nan nan nan nan nan nan nan nan nan nan nan nan nan nan nan nan nan nan nan nan nan nan nan
27 28 28 29 29 29 31 30 31 35 37 38 37 37 37 37 38 38 39 40 40 41 42 44 46 47 48 48 49 49 51 51 50 48 48 47 44 41 41 40 37 nan nan nan nan nan nan nan nan nan nan nan nan nan nan nan nan nan nan nan nan nan nan nan nan nan nan nan nan nan nan nan nan nan
26 28 30 30 30 32 32 35 37 37 39 39 39 39 38 38 38 38 39 41 43 43 45 46 48 49 50 53 52 53 54 54 54 55 54 52 50 47 nan nan nan nan nan nan nan nan nan nan nan nan nan nan nan nan nan nan nan nan nan nan nan nan nan nan nan nan nan nan nan nan nan nan nan nan
28 28 30 32 31 33 32 39 40 41 42 38 39 39 41 40 39 39 41 45 46 46 46 50 53 59 61 63 65 62 60 58 58 58 58 56 nan nan nan nan nan nan nan nan nan nan nan nan nan nan nan nan nan nan nan nan nan nan nan nan nan nan nan nan nan nan nan nan nan nan nan nan nan nan
29 29 31 34 34 34 35 45 43 44 44 40 39 38 41 43 42 42 43 46 48 53 59 59 60 62 65 66 67 67 66 64 60 59 60 58 nan nan nan nan nan nan nan nan nan nan nan nan nan nan nan nan nan nan nan nan nan nan nan nan nan nan nan nan nan nan nan nan nan nan nan nan nan nan
28 29 32 37 37 36 41 52 47 47 45 43 42 38 40 44 43 45 49 48 53 57 59 60 62 62 64 66 65 65 68 nan 61 58 58 nan nan nan nan nan nan nan nan nan nan nan nan nan nan nan nan nan nan nan nan nan nan nan nan nan nan nan nan nan nan nan nan nan nan nan nan nan nan nan
30 29 29 36 38 40 49 55 53 51 50 47 45 41 40 43 44 48 51 53 55 57 60 62 64 65 65 64 67 67 65 65 62 58 nan nan nan nan nan nan nan nan nan nan nan nan nan nan nan nan nan nan nan nan nan nan nan nan nan nan nan nan nan nan nan nan nan nan nan nan nan nan nan nan
32 31 31 33 39 41 51 56 56 55 54 52 51 48 45 45 48 52 52 59 59 58 60 63 64 65 65 64 65 67 65 66 63 nan nan nan nan nan nan nan nan nan nan nan nan nan nan nan nan nan nan nan nan nan nan nan nan nan nan nan nan nan nan nan nan nan nan nan nan nan nan nan nan nan
36 36 37 35 42 46 51 55 57 56 55 56 55 53 53 56 59 55 55 60 58 58 61 64 66 67 67 64 64 66 66 65 nan nan nan nan nan nan nan nan nan nan nan nan nan nan nan nan nan nan nan nan nan nan nan nan nan nan nan nan nan nan nan nan nan nan nan nan nan 44 nan nan nan nan
35 39 39 40 49 53 53 55 56 56 57 56 54 58 59 61 62 61 58 62 60 60 62 65 66 68 69 67 66 65 66 65 nan nan nan nan nan nan nan nan nan nan nan nan nan nan nan nan nan nan nan nan nan nan nan nan nan nan nan nan nan nan nan nan nan nan nan nan nan nan nan nan nan nan
37 39 41 44 57 57 56 56 57 57 56 54 58 64 66 65 65 61 61 64 61 60 61 62 63 67 69 69 66 63 64 61 nan nan nan nan nan nan nan nan nan nan nan nan nan nan nan nan nan nan nan nan nan nan nan nan nan nan nan nan nan nan nan nan nan nan nan nan nan nan nan nan 42 44
39 40 41 46 61 59 58 59 58 56 56 57 59 64 68 68 63 62 62 63 61 59 60 59 60 64 66 65 63 63 65 65 nan nan nan nan nan nan nan nan nan nan nan nan nan nan nan nan nan nan nan nan nan nan nan nan nan nan nan nan nan nan nan nan nan nan nan nan nan nan nan nan nan nan
40 39 45 55 60 61 59 58 55 55 54 55 59 62 66 63 62 62 63 63 62 60 59 60 61 63 62 61 62 66 nan nan nan nan nan nan nan nan nan nan nan nan nan nan nan nan nan nan nan nan nan nan nan nan nan nan nan nan nan nan nan nan nan nan nan nan nan nan nan nan nan nan nan nan
44 45 49 62 62 64 66 63 62 61 62 62 62 64 63 63 61 62 63 64 63 62 61 61 64 65 62 64 nan nan nan nan nan nan nan nan nan nan nan nan nan nan nan nan nan nan nan nan nan nan nan nan nan nan nan nan nan nan nan nan nan nan nan nan nan nan nan nan nan nan nan nan nan nan
50 54 68 70 69 67 65 61 59 59 63 65 67 67 66 65 62 62 66 67 64 62 62 67 71 68 66 66 nan nan nan nan nan nan nan nan nan nan nan nan nan nan nan nan nan nan nan nan nan nan nan nan nan nan nan nan nan nan nan nan nan nan nan nan nan nan nan nan nan nan nan nan nan nan
61 62 67 70 71 70 68 64 62 62 63 63 66 69 68 66 67 68 70 70 68 67 69 74 75 73 71 nan nan nan nan nan nan nan nan nan nan nan nan nan nan nan nan nan nan nan nan nan nan nan nan nan nan nan nan nan nan nan nan nan nan nan nan nan nan nan nan nan nan nan nan nan nan nan
64 64 66 70 72 72 72 71 70 68 68 68 68 67 67 68 70 72 71 69 70 71 73 76 76 76 74 nan nan nan nan nan nan nan nan nan nan nan nan nan nan nan nan nan nan nan nan nan nan nan nan nan nan nan nan nan nan nan nan nan nan nan nan nan nan nan nan nan nan nan nan nan nan nan
63 64 66 68 71 73 77 78 76 75 75 75 75 73 72 71 73 75 74 73 74 74 73 72 74 75 nan nan nan nan nan nan nan nan nan nan nan nan nan nan nan nan nan nan nan nan nan nan nan nan nan nan nan nan nan nan nan nan nan nan nan nan nan nan nan nan nan nan nan nan nan nan nan nan
66 65 66 67 69 74 75 75 77 78 78 78 79 78 76 75 76 78 76 76 75 73 71 72 74 75 nan nan nan nan nan nan nan nan nan nan nan nan nan nan nan nan nan nan nan nan nan nan nan nan nan nan nan nan nan nan nan nan nan nan nan nan nan nan nan nan nan nan nan nan nan nan nan nan
63 64 64 65 68 73 74 75 77 78 78 79 79 80 78 78 78 76 75 75 75 74 76 79 79 nan nan nan nan nan nan nan nan nan nan nan nan nan nan nan nan nan nan nan nan nan nan nan nan nan nan nan nan nan nan nan nan nan nan nan nan nan nan nan nan nan nan nan nan nan nan nan nan nan
58 61 62 63 66 71 74 77 79 81 82 82 82 80 78 79 80 79 79 80 80 79 80 nan nan nan nan nan nan nan nan nan nan nan nan nan nan nan nan nan nan nan nan nan nan nan nan nan nan nan nan nan nan nan nan nan nan nan nan nan nan nan nan nan nan nan nan nan nan nan nan nan nan nan
53 56 59 61 65 69 72 76 81 84 85 86 84 81 79 79 80 79 78 78 78 76 nan nan nan nan nan nan nan nan nan nan nan nan nan nan nan nan nan nan nan nan nan nan nan nan nan nan nan nan nan nan nan nan nan nan nan nan nan nan nan nan nan nan nan nan nan nan nan nan nan nan nan nan
52 52 55 60 64 68 71 75 79 82 82 81 80 79 78 79 79 76 73 70 68 66 nan nan nan nan nan nan nan nan nan nan nan nan nan nan nan nan nan nan nan nan nan nan nan nan nan nan nan nan nan nan nan nan nan nan nan nan nan nan nan nan nan nan nan nan nan nan nan nan nan nan nan nan
52 52 53 60 63 67 73 77 77 78 79 77 75 75 73 70 71 70 67 63 63 67 nan nan nan nan nan nan nan nan nan nan nan nan nan nan nan nan nan nan nan nan nan nan nan nan nan nan nan nan nan nan nan nan nan nan nan nan nan nan nan nan nan nan nan nan nan nan nan nan nan nan nan nan
nan nan 53 59 64 70 74 74 74 76 78 75 71 68 65 63 63 69 68 66 65 nan nan nan nan nan nan nan nan nan nan nan nan nan nan nan nan nan nan nan nan nan nan nan nan nan nan nan nan nan nan nan nan nan nan nan nan nan nan nan nan nan nan nan nan nan nan nan nan nan nan nan nan nan
50 51 54 61 67 68 70 69 68 72 74 68 60 56 55 57 59 61 60 61 nan nan nan nan nan nan nan nan nan nan nan nan nan nan nan nan nan nan nan nan nan nan nan nan nan nan nan nan nan nan nan nan nan nan nan nan nan nan nan nan nan nan nan nan nan nan nan nan nan nan nan nan nan nan
nan 52 58 65 68 69 nan nan nan 56 56 49 46 46 46 48 51 53 nan nan nan nan nan nan nan nan nan nan nan nan nan nan nan nan nan nan nan nan nan nan nan nan nan nan nan nan nan nan nan nan nan nan nan nan nan nan nan nan nan nan nan nan nan nan nan nan nan nan nan nan nan nan nan nan
nan nan nan nan nan nan nan nan 35 34 33 30 31 38 42 43 45 nan nan nan nan nan nan nan nan nan nan nan nan nan nan nan nan nan nan nan nan nan nan nan nan nan nan nan nan nan nan nan nan nan nan nan nan nan nan nan nan nan nan nan nan nan nan nan nan nan nan nan nan nan nan nan nan nan
Wind_Direction
9 17 22 23 30 22 14 16 11 2 4 358 351 348 353 358 7 5 nan nan nan nan nan nan nan nan 331 329 334 nan nan 331 330 nan nan nan 329 334 337 338 341 342 342 344 347 348 347 346 345 343 340 336 333 330 327 324 321 318 313 309 304 300 297 295 295 294 294 295 295 292 288 283 275 269
359 2 7 8 14 17 9 7 7 357 359 4 359 353 349 349 356 359 360 347 nan nan nan nan 329 324 327 326 332 327 nan 316 nan nan nan nan 330 330 nan 337 340 340 342 344 345 346 345 342 342 340 337 333 331 329 327 323 320 317 313 308 304 301 297 295 295 295 294 293 291 288 285 281 279 276
346 354 357 354 3 5 8 3 2 358 357 5 6 360 352 346 349 351 349 353 344 nan nan nan nan 325 324 332 nan nan 332 325 nan nan nan nan 323 nan 335 nan nan 339 340 343 nan nan nan nan nan nan nan nan 332 330 327 324 321 316 312 308 304 302 300 298 297 297 296 293 289 285 282 281 280 280
335 345 351 345 347 351 357 2 1 359 356 358 1 1 355 349 346 344 344 350 347 341 nan nan nan nan 325 nan nan 328 nan 320 nan nan 333 324 nan nan 334 nan nan nan nan nan nan nan nan nan nan nan nan nan 334 333 331 328 324 317 313 309 307 305 304 302 301 300 298 296 292 287 282 278 276 274
329 336 343 342 340 343 351 357 0 357 354 354 355 356 356 355 349 345 346 347 349 340 349 nan nan nan 324 nan nan 329 330 326 nan nan 335 330 334 nan nan 332 nan nan nan nan nan nan nan nan nan nan nan nan nan 336 336 334 330 324 321 317 313 310 306 304 301 299 297 296 295 291 285 279 276 273
321 328 336 340 338 340 347 354 357 356 352 351 352 351 353 355 351 349 349 351 352 353 344 345 nan 326 nan 326 327 331 333 331 328 nan nan 332 333 333 nan nan 328 nan nan nan nan nan nan nan nan nan nan nan nan nan 340 339 nan 329 325 320 316 311 308 305 303 302 300 299 297 295 290 283 278 277
321 327 332 338 336 335 343 348 351 353 351 349 351 351 349 352 351 345 349 349 350 353 344 342 345 nan 329 nan 328 331 330 329 328 329 331 330 330 330 331 330 nan nan nan nan nan nan nan nan nan nan nan nan nan nan nan nan nan nan nan nan nan nan nan nan nan nan 301 299 295 291 288 283 278 276
318 325 327 334 335 335 338 341 343 345 347 347 348 351 348 348 348 342 341 349 349 346 346 337 341 336 332 nan 328 327 326 328 326 326 326 329 331 331 331 331 329 328 nan nan nan nan nan nan nan nan nan nan nan nan nan nan nan nan nan nan nan nan nan nan nan nan nan nan nan nan nan nan nan nan
314 319 323 327 331 331 333 335 336 338 344 344 344 346 347 346 345 340 338 344 349 350 349 344 337 336 330 330 328 326 325 325 324 323 325 327 330 330 331 327 326 323 335 nan nan nan nan nan nan nan nan nan nan nan nan nan nan nan nan nan nan nan nan nan nan nan nan nan nan nan nan nan nan nan
310 313 318 321 327 328 330 330 330 331 338 339 340 341 342 344 343 341 338 342 348 350 350 348 341 337 333 329 330 329 327 326 325 323 325 327 328 328 329 329 327 323 nan nan nan nan nan nan nan nan nan nan nan nan nan nan nan nan nan nan nan nan nan nan nan nan nan nan nan nan nan nan nan nan
312 314 315 319 324 325 325 326 326 327 330 332 336 336 337 340 341 340 337 336 341 345 347 347 347 341 336 333 332 330 329 330 329 327 325 326 326 329 328 328 327 325 327 nan nan nan nan nan nan nan nan nan nan nan nan nan nan nan nan nan nan nan nan nan nan nan nan nan nan nan nan nan nan nan
314 318 317 319 321 321 318 319 320 321 323 323 329 330 330 334 338 339 337 335 334 336 341 344 344 343 338 334 333 330 332 335 334 331 328 326 324 325 320 323 321 319 328 330 nan nan nan nan nan nan nan nan nan nan nan nan nan nan nan nan nan nan nan nan nan nan nan nan nan nan nan nan nan nan
309 312 314 314 316 313 312 318 315 318 316 318 322 323 326 330 333 335 334 335 333 332 335 339 339 339 339 337 334 335 335 339 338 333 331 326 324 324 324 321 322 328 332 325 nan nan nan nan nan nan 341 344 nan nan nan nan nan nan nan nan nan nan nan nan nan nan nan nan nan nan nan nan nan nan
306 311 311 308 315 309 312 311 314 313 314 319 319 318 322 325 328 331 332 331 331 330 331 334 335 336 337 337 336 338 338 336 336 335 330 328 325 325 325 321 328 330 325 323 322 323 nan nan nan nan nan nan nan nan 335 nan nan nan nan nan nan nan nan nan nan nan nan nan nan nan nan nan nan nan
298 302 308 303 304 304 306 308 312 307 310 316 317 317 322 323 325 327 330 329 327 327 328 329 331 332 334 336 336 337 338 337 336 333 329 328 325 325 326 326 319 321 321 321 322 325 nan nan nan nan nan nan nan nan nan nan nan nan nan nan nan nan nan nan nan nan nan nan nan nan nan nan nan nan
295 300 302 304 301 305 305 306 303 306 308 312 315 312 316 322 327 326 325 325 324 325 325 326 328 328 330 332 333 335 335 333 334 333 330 327 324 324 327 323 321 315 321 320 322 nan nan nan nan nan nan nan nan nan nan nan nan nan nan nan nan nan nan nan nan nan nan nan nan nan nan nan nan nan
299 297 299 303 305 304 310 307 305 301 302 307 315 312 313 319 324 325 324 321 320 320 322 323 324 325 324 327 329 330 330 329 334 331 330 327 324 323 322 320 319 nan 317 319 nan nan nan nan nan nan nan nan nan nan nan nan nan nan nan nan nan nan nan nan nan nan nan nan nan nan nan nan nan nan
305 305 302 303 304 304 298 303 308 305 303 300 301 305 306 312 319 322 323 323 320 313 315 319 320 319 320 320 321 323 325 326 327 328 331 327 324 321 322 318 315 314 nan nan nan nan nan nan nan nan nan nan nan nan nan nan nan nan nan nan nan nan nan nan nan nan nan nan nan nan nan nan nan nan
312 312 309 308 306 303 298 300 307 304 303 300 301 305 311 313 315 317 319 320 318 316 316 314 315 315 315 317 318 317 320 322 321 322 325 325 321 315 312 313 314 nan nan nan nan nan nan nan nan nan nan nan nan nan nan nan nan nan nan nan nan nan nan nan nan nan nan nan nan nan nan nan nan nan
318 318 317 312 310 305 303 302 308 302 298 301 303 305 307 308 310 312 314 314 314 315 314 312 312 313 313 315 315 314 317 318 317 316 317 317 315 314 nan nan nan nan nan nan nan nan nan nan nan nan nan nan nan nan nan nan nan nan nan nan nan nan nan nan nan nan nan nan nan nan nan nan nan nan
323 324 321 316 310 310 309 305 308 302 298 297 299 301 303 303 306 307 305 309 311 311 307 302 299 294 297 300 301 302 305 311 314 315 316 317 nan nan nan nan nan nan nan nan nan nan nan nan nan nan nan nan nan nan nan nan nan nan nan nan nan nan nan nan nan nan nan nan nan nan nan nan nan nan
314 320 323 316 314 314 311 307 313 306 299 295 295 298 302 303 303 302 302 300 303 305 296 295 296 299 299 300 301 302 303 305 309 313 314 316 nan nan nan nan nan nan nan nan nan nan nan nan nan nan nan nan nan nan nan nan nan nan nan nan nan nan nan nan nan nan nan nan nan nan nan nan nan nan
306 307 306 315 316 315 309 309 313 311 304 298 298 301 301 300 302 301 300 299 298 294 296 294 294 293 296 298 299 299 302 nan 308 309 311 nan nan nan nan nan nan nan nan nan nan nan nan nan nan nan nan nan nan nan nan nan nan nan nan nan nan nan nan nan nan nan nan nan nan nan nan nan nan nan
304 303 304 304 318 319 307 307 313 313 312 304 301 301 300 299 301 296 296 293 293 295 297 297 296 296 296 297 297 297 298 301 305 306 nan nan nan nan nan nan nan nan nan nan nan nan nan nan nan nan nan nan nan nan nan nan nan nan nan nan nan nan nan nan nan nan nan nan nan nan nan nan nan nan
304 304 306 297 309 314 302 305 310 313 313 308 300 301 299 296 293 292 294 293 296 293 294 294 295 295 297 297 297 296 297 299 302 nan nan nan nan nan nan nan nan nan nan nan nan nan nan nan nan nan nan nan nan nan nan nan nan nan nan nan nan nan nan nan nan nan nan nan nan nan nan nan nan nan
304 303 298 296 299 307 299 304 308 311 312 309 298 298 300 297 296 296 292 291 293 292 292 293 294 296 298 298 299 297 297 301 nan nan nan nan nan nan nan nan nan nan nan nan nan nan nan nan nan nan nan nan nan nan nan nan nan nan nan nan nan nan nan nan nan nan nan nan nan 340 nan nan nan nan
306 299 297 297 297 304 301 303 306 307 311 304 299 300 299 298 299 296 291 292 295 295 296 297 298 299 300 300 300 300 298 301 nan nan nan nan nan nan nan nan nan nan nan nan nan nan nan nan nan nan nan nan nan nan nan nan nan nan nan nan nan nan nan nan nan nan nan nan nan nan nan nan nan nan
305 297 295 293 296 303 304 305 304 303 304 302 307 299 301 299 299 294 292 295 299 299 301 303 303 303 303 302 301 298 296 301 nan nan nan nan nan nan nan nan nan nan nan nan nan nan nan nan nan nan nan nan nan nan nan nan nan nan nan nan nan nan nan nan nan nan nan nan nan nan nan nan 344 347
302 297 299 294 297 304 304 304 304 301 305 309 302 299 300 298 291 294 293 298 299 301 303 304 303 304 306 305 301 296 295 294 nan nan nan nan nan nan nan nan nan nan nan nan nan nan nan nan nan nan nan nan nan nan nan nan nan nan nan nan nan nan nan nan nan nan nan nan nan nan nan nan nan nan
306 296 280 281 294 299 300 295 290 285 292 299 297 295 294 290 291 292 292 295 298 298 299 301 302 303 303 303 298 294 nan nan nan nan nan nan nan nan nan nan nan nan nan nan nan nan nan nan nan nan nan nan nan nan nan nan nan nan nan nan nan nan nan nan nan nan nan nan nan nan nan nan nan nan
292 294 289 285 291 291 298 302 302 301 298 294 291 287 288 290 293 295 296 297 299 300 300 302 302 301 298 297 nan nan nan nan nan nan nan nan nan nan nan nan nan nan nan nan nan nan nan nan nan nan nan nan nan nan nan nan nan nan nan nan nan nan nan nan nan nan nan nan nan nan nan nan nan nan
292 288 280 281 282 287 291 297 294 292 291 294 294 294 294 294 294 298 301 302 301 300 298 300 301 297 296 297 nan nan nan nan nan nan nan nan nan nan nan nan nan nan nan nan nan nan nan nan nan nan nan nan nan nan nan nan nan nan nan nan nan nan nan nan nan nan nan nan nan nan nan nan nan nan
292 292 287 286 289 292 294 295 293 291 290 292 295 295 295 297 297 298 299 302 301 300 298 297 296 295 294 nan nan nan nan nan nan nan nan nan nan nan nan nan nan nan nan nan nan nan nan nan nan nan nan nan nan nan nan nan nan nan nan nan nan nan nan nan nan nan nan nan nan nan nan nan nan nan
295 298 297 295 294 296 294 294 293 293 291 291 291 293 297 295 294 295 296 296 297 297 297 295 294 294 294 nan nan nan nan nan nan nan nan nan nan nan nan nan nan nan nan nan nan nan nan nan nan nan nan nan nan nan nan nan nan nan nan nan nan nan nan nan nan nan nan nan nan nan nan nan nan nan
295 295 296 297 297 297 294 293 294 293 291 291 291 291 292 292 291 291 290 291 291 292 292 293 293 293 nan nan nan nan nan nan nan nan nan nan nan nan nan nan nan nan nan nan nan nan nan nan nan nan nan nan nan nan nan nan nan nan nan nan nan nan nan nan nan nan nan nan nan nan nan nan nan nan
298 299 299 298 298 294 294 297 296 293 291 290 289 288 287 287 285 287 289 289 291 292 292 292 293 293 nan nan nan nan nan nan nan nan nan nan nan nan nan nan nan nan nan nan nan nan nan nan nan nan nan nan nan nan nan nan nan nan nan nan nan nan nan nan nan nan nan nan nan nan nan nan nan nan
302 301 299 299 297 297 299 297 293 291 290 288 286 285 286 285 285 288 289 289 290 291 290 291 291 nan nan nan nan nan nan nan nan nan nan nan nan nan nan nan nan nan nan nan nan nan nan nan nan nan nan nan nan nan nan nan nan nan nan nan nan nan nan nan nan nan nan nan nan nan nan nan nan nan
305 302 302 302 301 300 299 296 292 288 285 284 283 284 285 285 285 286 284 284 286 286 287 nan nan nan nan nan nan nan nan nan nan nan nan nan nan nan nan nan nan nan nan nan nan nan nan nan nan nan nan nan nan nan nan nan nan nan nan nan nan nan nan nan nan nan nan nan nan nan nan nan nan nan
304 304 304 303 302 300 299 296 290 287 285 282 281 281 280 280 281 281 283 284 284 284 nan nan nan nan nan nan nan nan nan nan nan nan nan nan nan nan nan nan nan nan nan nan nan nan nan nan nan nan nan nan nan nan nan nan nan nan nan nan nan nan nan nan nan nan nan nan nan nan nan nan nan nan
303 300 299 301 302 301 300 296 291 288 285 281 278 275 275 274 274 278 281 282 284 284 nan nan nan nan nan nan nan nan nan nan nan nan nan nan nan nan nan nan nan nan nan nan nan nan nan nan nan nan nan nan nan nan nan nan nan nan nan nan nan nan nan nan nan nan nan nan nan nan nan nan nan nan
298 299 299 297 298 299 301 300 295 288 282 277 273 272 273 271 271 274 278 280 281 281 nan nan nan nan nan nan nan nan nan nan nan nan nan nan nan nan nan nan nan nan nan nan nan nan nan nan nan nan nan nan nan nan nan nan nan nan nan nan nan nan nan nan nan nan nan nan nan nan nan nan nan nan
nan nan 300 299 299 298 299 300 296 289 283 277 270 269 270 268 269 273 273 274 275 nan nan nan nan nan nan nan nan nan nan nan nan nan nan nan nan nan nan nan nan nan nan nan nan nan nan nan nan nan nan nan nan nan nan nan nan nan nan nan nan nan nan nan nan nan nan nan nan nan nan nan nan nan
300 302 302 299 295 294 295 295 290 287 284 277 267 265 269 271 272 274 270 269 nan nan nan nan nan nan nan nan nan nan nan nan nan nan nan nan nan nan nan nan nan nan nan nan nan nan nan nan nan nan nan nan nan nan nan nan nan nan nan nan nan nan nan nan nan nan nan nan nan nan nan nan nan nan
nan 304 303 301 299 298 nan nan nan 286 288 280 269 268 271 271 269 268 nan nan nan nan nan nan nan nan nan nan nan nan nan nan nan nan nan nan nan nan nan nan nan nan nan nan nan nan nan nan nan nan nan nan nan nan nan nan nan nan nan nan nan nan nan nan nan nan nan nan nan nan nan nan nan nan
nan nan nan nan nan nan nan nan 294 293 291 283 276 275 272 264 259 nan nan nan nan nan nan nan nan nan nan nan nan nan nan nan nan nan nan nan nan nan nan nan nan nan nan nan nan nan nan nan nan nan nan nan nan nan nan nan nan nan nan nan nan nan nan nan nan nan nan nan nan nan nan nan nan nan